Tracking 19242 objects as of 18-Sep-2018
HD Live streaming from Space Station
objects crossing your sky now

OPS 0203 (DMSP 5A F2)

Track OPS 0203 (DMSP 5A F2) now!
10-day predictions
OPS 0203 (DMSP 5A F2) is classified as:


NORAD ID: 4512
Int'l Code: 1970-070A
Perigee: 736.7 km
Apogee: 830.2 km
Inclination: 99.0 °
Period: 100.4 minutes
Semi major axis: 7154 km
RCS: 0.9702 m2 (medium)
Launch date: September 3, 1970
Source: United States (US)
Launch site: AIR FORCE WESTERN TEST RANGE (AFWTR)
aabbcc
Your satellite tracking list
Your tracking list is empty




NASA's NSSDC Master Catalog

Two Line Element Set (TLE):
1  4512U 70070A   18260.58299859 +.00000026 +00000-0 +25476-4 0  9994
2  4512 099.0053 080.5002 0065356 116.1537 244.6388 14.34623221505759
Source of the keplerian elements: AFSPC